Regional Weather Roundup
Issued by NWS

Home | Current Version | Previous Version | Graphics & Text | Print | Product List | Glossary On
Versions: 1 2 3 4 5 6 7 8 9 10 11 12 13 14 15 16 17 18 19 20 21 22 23 24 25 26 27
000
ASUS45 KPSR 281810
RWRAZ

ARIZONA HOURLY REGIONAL WEATHER ROUNDUP
NATIONAL WEATHER SERVICE PHOENIX AZ
1100 AM MST THU JUL 28 2016

NOTE: FAIR INDICATES FEW OR NO CLOUDS BELOW 12,000 FEET WITH NO
SIGNIFICANT WEATHER AND/OR OBSTRUCTIONS TO VISIBILITY.

AZZ001>003-036-281900-
NORTHWEST ARIZONA

CITY           SKY/WX    TMP DP  RH WIND       PRES   REMARKS
BULLHEAD CITY  MOSUNNY  108  55  18 SW12G21   29.80S HX 106
KINGMAN        SUNNY    100  49  17 SW17      30.04S
6HR MIN TEMP:  81; 6HR MAX TEMP: 101;

$$

AZZ004>008-015-016-018-281900-
NORTH CENTRAL ARIZONA

CITY           SKY/WX    TMP DP  RH WIND       PRES   REMARKS
GRAND CANYON   SUNNY     90  40  17 VRB3      30.31S
6HR MIN TEMP:  53; 6HR MAX TEMP:  91;

WILLIAMS       SUNNY     86  46  25 CALM      30.39S
PRESCOTT       SUNNY     89  55  31 VRB5      30.19F
6HR MIN TEMP:  67; 6HR MAX TEMP:  89;

FLAGSTAFF      SUNNY     81  54  39 SW6       30.34S
6HR MIN TEMP:  54; 6HR MAX TEMP:  81;

PAYSON         SUNNY     88  54  31 VRB5      30.23S
PAGE           SUNNY     98  35  11 VRB3      30.07S
6HR MIN TEMP:  78; 6HR MAX TEMP:  98;

$$

AZZ009>014-017-281900-
NORTHEAST ARIZONA

CITY           SKY/WX    TMP DP  RH WIND       PRES   REMARKS
WINSLOW        SUNNY     97  48  18 CALM      30.15F
6HR MIN TEMP:  60; 6HR MAX TEMP:  98;

SAINT JOHNS    SUNNY     89  51  27 CALM      30.22F
6HR MIN TEMP:  59; 6HR MAX TEMP:  91;

WINDOW ROCK    SUNNY     88  45  22 S8        30.32F
6HR MIN TEMP:  53; 6HR MAX TEMP:  88;

SHOW LOW       MOSUNNY   82  50  32 SW7       30.31S
$$

AZZ023-281900-
GREATER PHOENIX AREA

CITY           SKY/WX    TMP DP  RH WIND       PRES   REMARKS
PHOENIX        MOSUNNY  101  59  24 S5        29.87F HX 101
6HR MIN TEMP:  89; 6HR MAX TEMP: 101;

BUCKEYE        MOSUNNY  100  57  23 S6        29.89S
GLENDALE       MOSUNNY  102  57  22 E6        29.89F HX 101
DEER VALLEY    SUNNY     99  57  24 SW6       29.89F
6HR MIN TEMP:  89; 6HR MAX TEMP:  99;

SCOTTSDALE     SUNNY    100  56  23 CALM      29.91F
6HR MIN TEMP:  88; 6HR MAX TEMP: 101;

MESA-GATEWAY   MOSUNNY   99  61  28 NW6       29.90F
CHANDLER       MOSUNNY   99  59  26 W6        29.89F
$$

AZZ027-028-281900-
SOUTHWEST MARICOPA COUNTY AND PINAL COUNTY

CITY           SKY/WX    TMP DP  RH WIND       PRES   REMARKS
CASA GRANDE    MOSUNNY  100  61  27 CALM      29.93S HX 101
6HR MIN TEMP:  82; 6HR MAX TEMP: 100;

$$

AZZ503-504-507>509-281900-
SOUTHEAST ARIZONA

CITY           SKY/WX    TMP DP  RH WIND       PRES   REMARKS
TUCSON         MOSUNNY   95  63  34 NE3       30.00F
6HR MIN TEMP:  76; 6HR MAX TEMP:  95;

RYAN FIELD     SUNNY     93  63  36 NE5       29.99F
NOGALES        SUNNY     89  63  41 VRB3      30.09F
6HR MIN TEMP:  69; 6HR MAX TEMP:  89;

DOUGLAS        SUNNY     87  60  40 MISG      30.12F
6HR MIN TEMP:  67; 6HR MAX TEMP:  88;

SAFFORD        SUNNY     92  56  29 VRB7      30.04F
6HR MIN TEMP:  71; 6HR MAX TEMP:  92;

$$

AZZ020-021-025-026-031-281900-
SOUTHWEST ARIZONA

CITY           SKY/WX    TMP DP  RH WIND       PRES   REMARKS
YUMA           PTSUNNY  102  64  28 S18       29.81S HX 105
6HR MIN TEMP:  88; 6HR MAX TEMP: 102;

$$

CAZ031-033-041-043-047-048-061-281900-
SOUTHERN CALIFORNIA

CITY           SKY/WX    TMP DP  RH WIND       PRES   REMARKS
DOWNTOWN L.A.  NOT AVBL
L.A. AIRPORT   SUNNY     77  65  66 W12       29.92R
6HR MIN TEMP:  69; 6HR MAX TEMP:  78;

SAN DIEGO      MOSUNNY   77  66  68 W7        29.93R
6HR MIN TEMP:  68; 6HR MAX TEMP:  77;

BURBANK        SUNNY     86  54  33 SE6       29.91S
6HR MIN TEMP:  71; 6HR MAX TEMP:  86;

ONTARIO        MOSUNNY   89  42  19 VRB5      29.93R
6HR MIN TEMP:  72; 6HR MAX TEMP:  89;

RIVERSIDE      SUNNY     89  44  20 VRB5      29.92S
6HR MIN TEMP:  73; 6HR MAX TEMP:  89;

PALM SPRINGS   SUNNY    104  55  19 E14       29.84R HX 102
6HR MIN TEMP:  87; 6HR MAX TEMP: 105;

EL CENTRO NAS  MOSUNNY  105  61  23 SE6       29.78S HX 106
6HR MIN TEMP:  83; 6HR MAX TEMP: 105;

IMPERIAL       SUNNY    106  66  27 SE8       29.76S HX 111
6HR MIN TEMP:  88; 6HR MAX TEMP: 106;

NEEDLES        MOSUNNY  111  54  15 SW15G23   29.81F HX 109
6HR MIN TEMP:  95; 6HR MAX TEMP: 111;

$$

NVZ020-UTZ003-281900-
SOUTHERN NEVADA-UTAH

CITY           SKY/WX    TMP DP  RH WIND       PRES   REMARKS
LAS VEGAS      PTSUNNY  104  43  12 SW3       29.86S
6HR MIN TEMP:  91; 6HR MAX TEMP: 104;

SALT LAKE CITY MOSUNNY   95  34  11 NW6       30.10S
6HR MIN TEMP:  74; 6HR MAX TEMP:  95;

$$

NMZ009-TXZ055-281900-
NEW MEXICO-WEST TEXAS

CITY           SKY/WX    TMP DP  RH WIND       PRES   REMARKS
ALBUQUERQUE    MOSUNNY   86  50  28 CALM      30.23F
6HR MIN TEMP:  70; 6HR MAX TEMP:  88;

EL PASO        MOSUNNY   92  55  28 E6        30.11F
6HR MIN TEMP:  74; 6HR MAX TEMP:  93;

$$


........................KEY........................
SKY/WX - SKY CONDITION/WEATHER
TMP    - TEMPERATURE IN FAHRENHEIT
DP     - DEW POINT IN FAHRENHEIT
RH     - RELATIVE HUMIDITY IN PERCENT
WIND   - DIRECTION AND SPEED IN MILES PER HOUR (MPH)
VRB    - VARIABLE WIND DIRECTION
PRES   - MEAN SEA LEVEL PRESSURE IN INCHES OF MERCURY
         F - FALLING PRESSURE   R - RISING PRESSURE
         S - STEADY PRESSURE
VSB    - VISIBILITY IN MILES
HX     - HEAT INDEX IN FAHRENHEIT
WCI    - WIND CHILL INDEX IN FAHRENHEIT
TC     - TEMPERATURE IN CELSIUS WHICH IS ALSO KNOWN AS
         TEMPERATURE IN CENTIGRADE
AFB    - AIR FORCE BASE
         LUKE AFB IS LUKE AIR FORCE BASE
         DAVIS-MONTHAN IS DAVIS-MONTHAN AIR FORCE BASE
NAS    - NAVAL AIR STATION
         EL CENTRO NAS IS EL CENTRO NAVAL AIR STATION
N/A    - NOT AVAILABLE





USA.gov is the U.S. government's official web portal to all federal, state and local government web resources and services.